Spring Lake, NC

10:25 PM EDT on September 25, 2016 (GMT -0400)
Pope Field Airport

Weather History for KPOB - October, 2013

Change the Weather History Date:

Thursday, October 3, 2013

  Actual Average Record
Temperature  
Mean Temperature 72 °F -  
Max Temperature 86 °F 75 °F 94 °F (1986)
Min Temperature 58 °F 51 °F 40 °F (1984)
Cooling Degree Days 7    
Growing Degree Days 22 (Base 50)    
Moisture  
Dew Point 61 °F    
Average Humidity 68    
Maximum Humidity 95    
Minimum Humidity 41    
Precipitation  
Precipitation 0.00 in - - ()
Sea Level Pressure  
Sea Level Pressure 30.12 in    
Wind  
Wind Speed 3 mph (SW)    
Max Wind Speed 9 mph    
Max Gust Speed -    
Visibility 10 miles    
Events      
Averages and records for this station are not official NWS values.
T = Trace of Precipitation, MM = Missing Value Source: NWS Daily Summary

Daily Weather History Graph

Daily Weather History Graph

Search for Another Location

Airport or City:

Trip Planner

Search our weather history database for the weather conditions in past years. The results will help you decide how hot, cold, wet, or windy it might be!

Date:

Astronomy

Oct. 03, 2013 Rise Set
Actual Time 7:12 AM EDT 6:56 PM EDT
Civil Twilight 6:47 AM EDT 7:22 PM EDT
Nautical Twilight 6:17 AM EDT 7:51 PM EDT
Astronomical Twilight 5:48 AM EDT 8:20 PM EDT
Moon 5:46 AM EDT (10/3) 6:03 PM EDT (10/3)
Length of Visible Light 12h 34m
Length of Day
11h 44m
Waning Crescent, 2% of the Moon is Illuminated
Oct 3
Waning Crescent
Oct 4
New
Oct 11
First Quarter
Oct 18
Full
Oct 26
Last Quarter

Hourly Weather History & Observations

Time (EDT) Temp. Heat Index Dew Point Humidity Pressure Visibility Wind Dir Wind Speed Gust Speed Precip Events Conditions
12:58 AM 67.5 °F - 61.0 °F 80% 30.13 in 10.0 mi WSW 4.6 mph - N/A   Clear
1:58 AM 67.1 °F - 60.6 °F 80% 30.13 in 10.0 mi West 4.6 mph - N/A   Clear
2:58 AM 66.6 °F - 59.4 °F 78% 30.12 in 10.0 mi WSW 2.3 mph - N/A   Clear
3:58 AM 61.0 °F - 59.4 °F 94% 30.11 in 10.0 mi Calm Calm - N/A   Clear
4:58 AM 59.9 °F - 58.5 °F 95% 30.11 in 10.0 mi Calm Calm - N/A   Clear
5:58 AM 58.8 °F - 57.2 °F 94% 30.12 in 10.0 mi Calm Calm - N/A   Clear
6:58 AM 59.4 °F - 57.9 °F 95% 30.13 in 9.0 mi ENE 2.3 mph - N/A   Scattered Clouds
7:58 AM 61.2 °F - 59.4 °F 94% 30.14 in 10.0 mi NE 2.3 mph - N/A   Scattered Clouds
8:58 AM 67.3 °F - 60.8 °F 80% 30.15 in 10.0 mi Calm Calm - N/A   Partly Cloudy
9:55 AM 71.1 °F - 61.3 °F 71% 30.15 in 10.0 mi WSW 3.5 mph - N/A   Partly Cloudy
10:55 AM 75.2 °F - 62.2 °F 64% 30.15 in 10.0 mi Calm Calm - N/A   Clear
11:56 AM 80.6 °F 81.8 °F 62.6 °F 54% 30.14 in 10.0 mi Variable 2.3 mph - N/A   Clear
12:58 PM 84.7 °F 85.4 °F 62.2 °F 47% 30.13 in 9.0 mi Variable 2.3 mph - N/A   Partly Cloudy
1:58 PM 83.1 °F 83.9 °F 62.1 °F 49% 30.11 in 10.0 mi Variable 1.2 mph - N/A   Mostly Cloudy
2:58 PM 85.6 °F 86.1 °F 62.2 °F 45% 30.09 in 10.0 mi NNW 5.8 mph - N/A   Mostly Cloudy
3:58 PM 86.4 °F 86.1 °F 59.9 °F 41% 30.08 in 10.0 mi WSW 9.2 mph - N/A   Partly Cloudy
4:58 PM 85.5 °F 85.2 °F 60.3 °F 42% 30.08 in 10.0 mi West 6.9 mph - N/A   Clear
5:58 PM 82.6 °F 82.8 °F 59.7 °F 46% 30.08 in 10.0 mi SW 6.9 mph - N/A   Mostly Cloudy
6:58 PM 81.0 °F 81.6 °F 60.3 °F 49% 30.10 in 10.0 mi SSW 5.8 mph - N/A   Mostly Cloudy
7:58 PM 78.3 °F - 61.5 °F 56% 30.10 in 10.0 mi SSW 6.9 mph - N/A   Scattered Clouds
8:58 PM 76.5 °F - 62.4 °F 62% 30.11 in 10.0 mi SSW 6.9 mph - N/A   Clear
9:58 PM 74.7 °F - 62.8 °F 66% 30.13 in 10.0 mi SSW 5.8 mph - N/A   Clear
10:58 PM 73.0 °F - 63.1 °F 71% 30.14 in 10.0 mi SSW 4.6 mph - N/A   Clear